Temp_Advection
nan nan nan nan nan nan nan nan nan nan nan nan nan nan nan nan nan nan nan nan nan nan nan nan nan nan nan nan nan nan nan nan nan nan nan nan nan nan nan nan nan nan nan nan nan nan nan nan nan nan nan nan nan nan nan nan nan nan nan nan nan nan nan nan nan nan nan nan nan
nan -0 -0 -0 -1 -1 -0 -0 -0 -0 -0 -0 -0 -0 -0 -0 -0 0 0 -0 -0 -1 -0 0 0 0 1 1 0 0 0 0 0 0 0 0 0 -0 -0 -0 -0 0 0 0 0 0 0 0 0 0 0 0 1 1 0 0 -0 -1 -1 -1 -1 -0 -0 0 -0 0 0 0 nan
nan -0 -0 -0 -0 -1 -1 -1 -0 -0 -0 -0 -0 -0 -0 -0 -0 -0 -0 -0 -0 -0 -0 -0 0 0 1 0 0 0 0 0 0 0 0 0 -0 -0 -0 -0 -0 0 0 -0 -0 0 0 0 0 0 0 0 0 0 0 0 0 0 0 0 0 0 0 0 0 0 0 0 nan
nan 0 -0 -0 -0 -1 -1 -1 -1 -1 -1 -0 -0 -0 -0 -0 -1 -1 -0 -0 -0 0 -0 -0 -0 0 1 0 0 0 0 0 0 0 0 0 -0 -0 -0 -0 0 0 0 0 0 -0 -0 0 0 0 -0 -0 0 0 0 0 0 0 1 1 1 1 1 0 0 0 1 1 nan
nan 0 -0 -0 -0 -0 -1 -1 -1 -1 -1 -1 -1 -0 -0 -0 -1 -1 -1 -0 0 0 0 -0 -0 0 0 0 0 0 0 0 0 -0 0 -0 -0 -0 -0 0 0 0 0 0 0 -0 -0 -0 0 0 -0 -0 -0 -0 -0 -0 -0 0 0 0 0 0 0 0 0 1 1 1 nan
nan 0 0 -0 -0 -0 -1 -1 -1 -1 -1 -1 -1 -1 -0 -0 -1 -1 -1 -0 -0 -0 0 0 0 0 0 0 0 0 0 -0 -0 -0 -0 -0 -0 -0 -0 -0 0 0 0 0 -0 -0 -0 -0 -0 0 0 -0 -0 -0 -0 -0 -0 -0 -0 -0 -0 -0 -0 -0 0 0 0 0 nan
nan 0 -0 -0 -0 -0 -0 -1 -1 -1 -1 -1 -1 -1 -1 -0 -1 -1 -1 -1 -0 -0 0 0 0 0 0 0 0 0 0 -0 -0 -0 -0 -0 -0 -0 -0 -0 0 0 0 -0 -0 -0 -0 -0 -0 -0 -0 -0 -0 -0 0 -0 -0 -0 -0 -0 -0 -0 -0 -0 -0 -0 -0 -0 nan
nan 0 -0 -0 -0 -1 -1 -1 -1 -1 -1 -1 -1 -1 -1 -1 -1 -1 -1 -1 -1 -0 0 0 1 1 0 0 0 0 0 -0 -0 -0 -0 -0 -0 -0 -0 0 0 0 0 0 -0 -0 -0 -0 -0 0 0 -0 -0 0 0 0 -0 -0 -0 -0 -0 -0 -0 -0 -0 -0 -0 -0 nan
nan 0 -0 -0 -1 -1 -1 -1 -1 -1 -1 -1 -1 -1 -1 -1 -1 -1 -1 -1 -1 -0 0 0 1 1 1 0 0 0 0 -0 -0 -0 -0 0 0 0 -0 0 0 0 0 0 0 0 -0 -0 -0 0 0 0 0 0 0 0 -0 -0 -0 -0 -0 -0 -0 -0 -0 -0 -0 -0 nan
nan 0 -0 -0 -0 -0 -1 -1 -1 -1 -1 -1 -1 -1 -1 -1 -1 -1 -1 -1 -1 -0 0 1 1 1 1 0 0 0 0 -0 -0 -0 -0 0 0 0 -0 -0 0 0 0 0 0 0 0 0 0 0 0 0 0 0 0 0 0 -0 -0 -0 -0 -0 -0 -0 -0 -0 -0 -0 nan
nan 0 0 0 0 -0 -0 -1 -1 -1 -2 -1 -1 -1 -1 -1 -1 -0 -0 -0 -0 0 1 0 0 0 0 0 0 0 0 0 -0 -0 -0 -0 -0 -0 -0 -0 -0 0 0 0 0 0 0 0 -0 -0 0 0 0 0 0 0 0 0 -0 -0 -0 -0 -0 -0 -0 -0 -0 -0 nan
nan 0 0 0 0 -0 -0 -0 -1 -1 -2 -1 -1 -1 -1 -0 0 0 0 0 0 1 1 0 0 0 1 1 1 1 0 -0 -0 -0 -0 -0 -0 -0 -0 -0 -0 0 0 0 0 0 0 -0 -0 -0 -0 0 0 0 0 0 0 0 0 -0 -0 -0 -0 -0 -0 0 0 0 nan
nan 0 0 0 0 0 0 0 0 -0 -1 -1 -1 -1 -1 -0 0 0 0 0 1 1 1 0 0 0 0 1 1 0 0 -0 -1 -0 -0 -0 -0 -0 -0 -0 -0 -0 0 0 0 0 -0 -0 -0 -0 0 0 0 0 0 0 0 0 0 0 0 -0 -0 0 0 0 0 0 nan
nan 0 0 0 0 0 0 1 1 1 0 -0 -1 -1 -1 -0 0 0 0 1 1 1 1 0 0 0 0 0 0 0 -0 -1 -1 -0 -0 -0 -0 -0 -0 -0 -0 -0 0 0 0 0 -0 -0 -0 -0 0 0 0 0 0 0 0 0 -0 -0 -0 0 0 0 0 0 0 0 nan
nan 0 0 0 0 0 1 1 1 1 1 1 0 -0 -1 -0 0 0 0 1 1 0 0 0 0 0 0 -0 -0 -0 -0 -1 -0 -0 -0 -0 -0 -0 -0 -0 -0 -0 0 0 0 0 -0 -0 -0 -0 0 0 0 0 0 0 0 -0 -0 -0 0 0 0 0 0 0 0 0 nan
nan 0 0 0 0 0 0 1 1 1 1 1 1 0 0 -0 -0 -0 0 0 0 0 0 0 0 0 -0 -0 -0 -0 -0 -0 -0 -0 -0 -0 -0 -0 -0 -0 0 0 0 0 0 0 -0 -0 -0 0 0 -0 -0 -0 0 0 0 0 0 0 0 0 0 0 0 0 0 0 nan
nan 0 0 0 0 -0 0 0 1 1 1 1 1 1 0 0 -0 -0 -0 0 0 0 0 0 0 0 -0 -0 -0 -0 -0 -0 -0 -0 -0 -0 -0 -0 0 0 0 0 0 0 0 -0 -0 -0 -0 0 -0 -0 -0 0 0 0 0 0 0 0 0 0 0 0 0 0 0 0 nan
nan 0 0 0 -0 -0 0 0 0 1 1 1 1 1 0 0 -0 -0 -0 0 0 0 0 0 0 0 0 -0 -0 -0 -0 -0 -0 -0 0 0 0 0 0 0 0 0 0 0 0 -0 -0 -0 -0 -0 -0 -0 0 0 0 0 0 0 0 0 0 0 0 0 0 0 0 0 nan
nan 0 0 0 -0 -0 -0 0 0 0 1 1 1 0 0 0 0 -0 -0 -0 -0 -0 -0 -0 -0 0 0 -0 -0 -0 -1 -0 -0 0 0 0 0 0 0 0 0 0 0 0 -0 -0 -0 -0 -0 -0 -0 0 0 0 0 0 0 0 0 0 0 0 0 -0 -0 0 0 0 nan
nan 0 0 0 -0 -0 -0 0 0 0 0 0 0 0 0 0 0 0 -0 -0 -0 -1 -1 -1 -0 -0 -0 -0 -0 -1 -1 -0 0 0 0 0 0 0 0 0 0 0 0 -0 -0 -0 -0 -0 -0 -0 0 0 0 0 0 0 0 0 0 0 0 0 0 -0 -0 0 0 0 nan
nan 0 0 0 -0 -0 0 0 0 0 0 0 0 0 0 0 0 0 0 -0 -0 -0 -1 -1 -1 -0 -0 -0 -0 -0 -0 -0 0 0 0 0 0 0 0 0 0 0 -0 -0 -0 -0 -0 -0 -0 -0 0 0 0 0 0 0 0 0 0 0 0 0 -0 -0 -0 0 0 0 nan
nan 0 0 -0 -0 -0 0 0 0 0 0 0 0 0 0 0 0 0 0 0 -0 -0 -0 -0 -1 -0 -0 -0 0 -0 -0 0 0 0 0 0 0 0 0 0 0 -0 -0 -0 -0 -0 -0 -0 0 0 0 0 0 0 0 0 0 0 0 0 0 0 -0 0 0 0 0 0 nan
nan 0 0 -0 -0 -0 0 0 0 0 0 0 0 0 0 0 0 0 0 0 -0 -0 -0 -0 -0 -0 0 0 0 -0 -0 0 1 0 0 0 0 0 0 0 0 0 -0 -0 -0 -0 0 0 0 0 0 0 0 0 -0 -0 -0 0 0 0 0 0 0 0 0 0 0 0 nan
nan 0 0 0 -0 -0 -0 0 0 0 0 0 0 0 0 0 0 0 -0 -0 0 0 -0 -0 -0 -0 -0 -0 -0 -1 -0 0 0 0 0 0 0 0 0 0 0 0 0 0 0 0 0 0 0 0 0 0 0 -0 -0 -0 -0 -0 0 0 -0 -0 0 -0 -0 -0 0 0 nan
nan 0 0 0 -0 -0 -0 -0 0 0 0 0 0 0 0 0 -0 -0 -0 0 0 0 -0 -0 -0 -0 -1 -1 -1 -1 -0 -0 -0 -0 -0 0 0 0 0 0 0 0 0 0 0 0 0 0 0 0 0 0 0 -0 -0 -0 -0 -0 -0 -0 -0 -0 -0 -0 -0 -0 -0 -0 nan
nan 0 0 0 -0 -0 -0 -0 0 0 0 0 0 0 0 0 -0 -0 0 0 0 -0 -0 -0 -0 -0 -1 -1 -1 -1 -0 -0 -0 -0 -0 -0 0 0 0 0 0 0 0 0 0 0 0 -0 -0 0 0 0 0 0 0 0 -0 -0 -0 -0 -0 -0 -0 -0 0 -0 -0 -0 nan
nan 0 0 0 -0 -0 -0 -0 0 0 0 0 0 0 -0 -0 -0 0 0 -0 -0 -0 -0 -0 -0 -0 -0 -1 -1 -1 -0 -0 0 0 0 0 0 0 0 0 0 0 0 0 0 0 -0 -0 -0 -0 -0 0 0 0 0 0 0 -0 -0 0 0 0 0 0 0 0 0 0 nan
nan 0 0 0 0 -0 -0 -0 -0 -0 0 0 -0 -0 -0 0 -0 -0 0 -0 -0 -0 -0 -0 -0 -0 -0 -0 -0 -0 0 0 0 0 1 0 0 0 0 -0 -0 0 0 0 0 0 0 0 -0 -0 -0 -0 0 0 0 0 0 0 0 0 0 0 0 0 0 0 0 0 nan
nan 0 0 0 0 0 0 0 0 -0 -0 -0 -0 -0 0 0 0 -0 0 0 -0 -0 -0 -0 -0 -0 -0 -0 0 0 0 0 0 1 1 1 0 0 -0 -0 -0 0 0 0 0 0 0 0 0 0 -0 -0 0 0 0 0 0 0 0 0 0 0 0 0 0 0 0 0 nan
nan 0 0 0 0 0 0 0 0 -0 -0 -0 -0 -0 0 0 0 -0 0 0 -0 -0 -0 -0 -0 -0 -0 -0 0 0 0 0 0 0 0 0 -0 -0 0 0 0 0 0 -0 0 0 0 0 0 -0 0 0 0 0 0 0 0 0 0 0 0 0 0 0 0 0 0 0 nan
nan 0 0 0 0 0 -0 -0 0 -0 -0 -0 -0 -0 0 0 -0 -0 -0 0 0 0 -0 -0 -0 -0 -0 -0 0 0 0 0 0 0 -0 -0 -0 -0 0 0 0 0 0 0 0 0 0 0 0 0 0 0 0 0 0 0 0 0 -0 -0 0 0 0 0 0 0 0 0 nan
nan 0 0 0 0 0 -0 -0 -0 0 -0 -0 -0 -0 -0 0 0 -0 -0 -0 0 0 0 -0 -0 -0 -0 -0 -0 -0 -0 0 0 -0 -0 -0 -0 -0 0 0 0 0 0 0 0 0 0 0 0 0 0 0 0 0 0 0 0 0 0 0 0 0 0 0 0 0 0 0 nan
nan 0 0 0 0 0 -0 -0 0 0 0 -0 -0 -0 -0 -0 0 0 -0 -0 0 0 0 0 0 0 0 -0 -0 -0 -0 0 0 -0 -0 -0 0 0 0 0 0 0 0 0 0 0 0 0 0 0 0 0 0 0 0 0 0 0 0 0 0 0 0 0 0 0 0 0 nan
nan 0 0 0 0 0 -0 -0 0 0 0 0 -0 -0 -0 -0 -0 -0 0 0 0 0 0 0 0 0 0 0 0 0 0 0 0 0 0 0 0 0 0 0 0 0 0 0 0 0 0 0 0 0 0 0 0 0 0 0 0 0 0 0 0 0 0 0 0 0 0 0 nan
nan 0 0 0 0 0 -0 -0 0 0 0 0 0 -0 -0 -0 -0 -0 0 0 0 0 0 0 0 0 0 0 0 0 0 0 0 0 0 0 0 0 0 0 0 0 0 0 0 0 0 0 0 0 0 0 0 0 0 0 0 0 0 0 0 0 -0 0 0 0 0 0 nan
nan 0 0 0 0 -0 -0 0 0 0 0 0 0 -0 -0 -0 -0 -0 0 0 0 0 0 0 0 0 0 0 0 0 0 0 0 0 0 0 0 0 0 0 0 0 0 0 0 0 0 0 0 0 0 0 0 0 0 0 -0 -0 0 0 0 0 -0 -0 -0 -0 0 0 nan
nan -0 0 0 0 -0 -0 -0 0 0 0 0 0 0 -0 -0 -0 -0 0 0 0 0 0 0 0 0 0 0 0 0 0 0 0 0 0 0 0 0 0 0 0 0 0 0 0 0 0 0 0 0 0 0 0 0 0 -0 -0 -0 -0 0 0 0 0 -0 -0 -0 -0 -0 nan
nan 0 0 0 0 -0 -0 -0 -0 0 0 0 0 0 0 -0 -0 0 0 0 0 0 0 0 0 0 0 0 0 0 0 0 0 0 0 0 0 0 0 0 0 0 0 0 0 -0 -0 0 0 0 0 0 0 0 0 0 0 -0 0 0 0 0 -0 -0 -0 -0 0 -0 nan
nan 0 0 0 0 -0 -0 -0 -0 -0 0 0 0 0 0 0 0 0 0 0 0 0 0 0 0 0 0 0 0 0 0 0 0 0 0 0 0 0 0 0 0 0 0 0 -0 -0 -0 -0 0 0 0 0 0 0 0 0 0 0 0 0 0 0 -0 -0 -0 -0 0 0 nan
nan 0 0 0 0 -0 -0 -0 -0 -0 0 0 0 0 0 0 0 0 0 0 0 0 0 0 0 0 0 0 0 0 0 0 0 0 0 0 0 0 0 0 0 -0 -0 -0 -0 0 0 0 0 0 0 0 0 0 0 0 0 0 0 0 0 0 -0 -0 -0 0 0 0 nan
nan nan nan nan nan nan nan nan nan nan nan nan nan nan nan nan nan nan nan nan nan nan nan nan nan nan nan nan nan nan nan nan nan nan nan nan nan nan nan nan nan nan nan nan nan nan nan nan nan nan nan nan nan nan nan nan nan nan nan nan nan nan nan nan nan nan nan nan nan
Wind_Speed
14 14 14 14 13 12 11 11 10 10 10 10 9 10 12 14 17 19 20 21 21 20 20 20 19 19 19 18 17 17 15 13 11 9 8 8 8 7 6 6 6 6 4 3 3 5 7 8 9 11 13 15 16 17 19 21 21 21 23 24 24 22 22 22 24 26 27 28 29
14 14 15 15 14 14 13 13 12 12 11 11 11 11 11 13 15 18 20 21 22 22 22 21 20 19 18 17 17 17 17 16 13 10 9 9 9 8 7 6 7 6 5 3 3 4 4 5 6 6 6 7 9 11 14 19 23 26 27 28 28 27 25 24 24 24 25 26 27
14 14 15 15 15 15 15 15 15 14 14 14 13 12 12 13 14 17 19 21 22 23 23 23 21 20 18 17 17 17 17 17 15 12 10 9 10 10 9 7 7 6 5 4 4 5 6 6 6 5 5 4 4 5 7 11 17 21 25 26 28 28 27 25 24 24 24 24 25
14 14 14 15 15 15 16 16 17 17 17 17 16 15 14 14 14 16 18 20 22 23 24 24 23 21 19 18 17 16 17 18 17 14 11 10 11 11 11 9 8 7 6 5 6 6 7 8 8 7 7 5 5 4 4 4 7 11 14 18 21 22 23 23 24 24 24 23 23
13 13 14 14 15 16 17 18 18 19 19 19 18 17 16 15 15 16 17 19 21 23 24 24 23 22 20 19 17 17 17 18 18 17 14 11 11 12 12 11 10 9 8 8 8 8 9 9 9 9 9 8 7 6 5 5 4 5 6 7 10 13 15 18 20 21 21 21 22
11 12 13 14 15 16 17 18 19 20 21 21 21 19 18 17 16 16 17 19 20 22 23 24 24 23 21 20 18 18 17 18 19 18 16 13 12 12 13 13 12 11 10 10 10 10 10 10 11 11 10 9 8 8 7 7 6 6 5 5 6 7 8 10 12 13 15 17 19
10 11 12 13 15 16 17 19 20 21 22 22 22 21 20 18 18 17 17 18 20 21 23 24 24 24 23 21 19 17 17 17 19 19 19 16 14 13 13 14 14 13 13 12 12 11 11 11 12 12 12 11 10 9 8 8 7 7 7 8 8 7 7 7 7 8 9 11 14
9 10 11 12 14 15 17 19 20 21 21 22 21 21 20 19 18 18 18 18 19 21 22 23 24 24 23 22 19 16 15 15 17 19 19 18 15 13 13 14 15 15 15 14 13 12 12 12 13 13 13 12 11 10 9 8 8 8 8 9 9 9 9 8 8 7 8 9 10
8 8 9 10 12 14 16 17 19 19 20 20 20 20 20 20 19 18 18 18 19 20 21 22 23 24 23 22 19 16 13 12 13 16 18 18 16 13 12 13 14 16 16 15 14 13 12 12 13 13 13 13 12 11 10 9 8 8 9 9 9 9 9 9 9 8 8 8 9
7 8 8 9 11 12 14 15 16 17 18 18 19 19 19 19 18 17 17 17 18 19 20 21 22 23 23 22 20 16 14 12 12 13 15 16 15 13 12 12 13 15 16 15 14 13 12 12 12 13 14 14 13 13 12 11 10 9 9 9 9 10 10 9 9 9 9 9 9
9 9 10 11 12 12 13 14 15 15 16 16 17 18 18 18 16 15 15 16 16 17 18 19 20 22 23 22 20 17 15 13 13 13 13 13 14 13 12 12 12 14 15 15 13 12 11 11 11 12 13 14 14 14 13 13 12 11 10 10 10 10 10 10 10 9 10 10 10
11 13 13 13 13 13 14 14 15 16 16 16 16 16 17 16 14 13 13 14 15 15 15 16 17 19 21 21 20 18 16 15 14 13 13 12 13 13 13 13 12 13 14 15 13 11 10 10 11 12 13 14 14 14 14 13 13 12 12 11 10 10 9 9 9 9 9 10 10
13 14 14 14 13 13 14 15 16 17 17 16 15 15 14 14 13 13 13 13 13 13 12 12 14 16 18 19 20 19 17 16 14 13 12 11 11 12 13 13 13 13 14 14 13 11 10 10 11 11 12 13 14 14 14 13 13 13 12 12 11 10 10 9 9 9 9 8 9
13 14 13 12 12 13 14 15 16 16 17 16 15 14 12 11 13 13 13 12 11 10 9 9 11 13 15 17 19 19 18 17 15 13 11 10 9 10 11 13 13 13 13 13 13 12 11 11 11 12 12 12 13 14 14 14 14 13 13 12 12 11 11 11 10 10 9 8 8
12 12 12 11 12 13 14 15 16 16 16 15 14 13 11 9 11 13 12 11 10 9 9 8 8 10 13 16 18 20 19 17 15 13 10 8 8 8 9 11 12 13 13 13 13 12 12 12 12 12 12 12 13 13 14 15 15 14 14 13 13 12 12 12 12 12 11 10 9
11 11 11 12 12 13 15 16 16 16 15 14 13 12 11 9 10 12 12 11 10 10 10 10 10 11 14 16 18 19 19 17 15 13 10 8 7 7 8 9 10 11 12 12 12 13 13 13 13 13 13 12 13 13 14 14 15 15 15 15 14 14 13 12 13 13 12 11 10
11 11 12 12 13 14 16 17 17 16 14 13 13 12 11 9 9 12 13 12 11 10 11 11 12 13 14 16 17 18 18 17 15 13 10 8 7 6 6 7 7 8 9 10 11 12 14 15 15 15 14 13 13 13 13 14 14 15 15 15 15 15 14 13 12 12 12 12 11
11 12 13 13 14 15 16 17 17 16 14 13 12 12 11 9 9 11 14 14 13 12 12 13 14 14 14 15 16 17 17 16 15 13 11 9 8 7 6 5 5 5 5 6 7 10 12 14 16 16 16 15 15 14 13 13 13 13 14 14 15 15 14 13 12 11 10 9 9
12 13 13 14 15 16 17 17 17 15 13 12 12 11 10 9 9 10 13 15 16 15 15 15 15 15 14 14 15 16 16 16 15 14 12 10 8 7 6 5 4 3 3 3 4 6 8 11 14 16 17 17 16 15 14 13 12 12 12 12 13 14 14 13 12 10 8 7 6
12 13 13 14 15 16 16 16 15 13 12 11 11 10 9 8 7 7 9 13 15 16 17 17 16 16 15 14 15 16 16 16 15 14 12 10 9 8 7 5 4 3 3 3 3 4 5 7 10 14 16 18 18 17 16 14 13 12 11 11 11 12 13 13 12 10 7 6 4
12 13 13 14 14 15 16 15 12 10 9 9 9 8 7 6 6 6 6 7 10 13 16 17 18 17 17 16 16 16 16 16 15 14 12 11 10 8 7 5 4 4 4 4 4 4 5 6 8 11 14 17 18 18 17 15 14 12 11 10 10 11 11 11 10 9 8 6 4
12 12 12 13 13 14 14 13 10 8 8 8 7 6 5 5 5 5 5 5 7 9 11 14 17 18 19 18 18 17 16 15 16 15 13 11 10 9 7 6 4 3 3 3 4 4 5 6 7 9 12 15 17 18 17 16 15 13 12 11 11 10 10 9 9 9 8 7 5
11 11 11 12 12 12 11 10 8 7 7 7 6 6 5 5 5 5 5 6 6 6 7 9 12 16 19 20 20 18 16 16 16 15 13 12 11 9 7 6 4 3 2 2 3 4 4 5 6 8 10 12 14 16 16 15 14 13 12 12 11 11 10 9 8 8 8 8 7
10 10 10 11 11 10 9 8 7 7 7 6 6 6 7 8 7 7 6 7 7 6 6 6 8 12 17 20 20 19 17 17 17 15 14 12 12 10 8 6 5 5 3 2 3 4 4 5 6 7 8 9 10 12 13 12 12 11 11 11 11 12 11 10 9 8 8 8 8
9 9 9 9 9 8 7 6 7 8 7 6 5 6 8 8 6 6 6 6 6 6 6 5 7 10 14 18 20 20 18 18 17 16 14 13 13 12 10 8 8 8 6 4 5 5 7 7 8 8 7 7 6 7 8 9 9 9 9 10 10 11 12 11 10 9 9 9 9
8 8 8 7 7 6 5 5 7 8 8 7 7 7 6 5 3 3 4 4 5 5 5 6 7 10 13 16 18 19 19 19 18 17 15 14 14 14 12 9 9 9 9 7 7 7 8 9 9 8 7 6 5 4 4 4 5 6 7 8 9 10 11 12 12 11 10 10 10
8 7 7 6 5 4 4 4 6 7 7 6 5 5 4 1 0 1 2 3 3 4 5 6 8 10 12 13 15 17 18 19 19 17 16 14 14 14 13 11 10 10 10 9 8 9 9 10 10 9 8 7 5 4 3 2 2 3 4 5 6 7 9 10 11 11 11 11 11
8 7 6 4 3 3 2 3 3 4 4 4 3 3 2 1 1 1 2 2 2 2 4 6 8 10 11 10 12 14 17 18 18 17 16 14 14 13 12 11 11 11 11 11 10 9 10 10 10 9 9 8 7 5 4 3 2 2 2 2 3 4 5 7 9 10 11 11 11
8 7 6 4 2 1 1 1 0 1 2 3 3 3 2 0 1 1 2 2 2 3 4 6 8 9 9 8 10 12 15 17 17 17 15 14 14 13 12 12 12 13 13 11 10 10 10 10 10 10 9 9 9 8 7 6 4 3 2 1 2 2 3 4 6 7 8 9 10
8 8 7 5 2 1 1 1 1 1 2 3 4 3 2 1 0 1 2 2 2 2 3 5 8 9 9 8 8 10 12 15 16 16 15 14 13 13 12 13 13 13 13 13 12 11 11 10 10 10 10 10 11 10 10 9 7 6 4 3 2 2 3 3 3 4 5 6 7
9 8 8 6 4 2 2 1 0 1 2 4 4 4 3 2 1 1 1 2 2 2 3 5 7 9 10 9 8 8 10 11 13 13 13 13 12 12 12 12 13 13 14 15 14 13 11 10 9 9 10 11 11 11 11 10 9 8 7 5 4 3 3 3 3 3 3 4 4
9 9 9 8 6 4 3 2 1 1 2 3 4 4 4 3 2 1 1 1 2 3 4 4 6 8 10 10 10 9 8 9 10 11 12 12 13 12 12 12 12 13 15 15 15 14 12 10 9 9 10 11 11 10 10 10 9 9 8 7 6 5 4 3 3 4 4 4 4
9 9 9 9 8 6 4 3 2 2 2 2 3 4 4 3 2 1 1 0 1 2 3 4 5 6 8 9 10 10 9 8 9 10 12 14 14 13 12 11 12 13 14 15 15 13 11 10 9 10 10 10 9 8 8 8 8 7 7 7 6 6 5 4 4 4 4 4 5
9 9 9 10 9 7 5 4 4 4 3 2 2 3 3 3 3 2 2 1 2 2 3 3 4 5 6 8 9 9 8 8 8 10 11 13 12 12 11 11 11 12 13 13 13 12 10 9 9 9 10 9 8 7 6 6 6 5 5 5 5 5 5 5 5 5 4 4 4
10 9 9 9 9 8 7 6 6 6 5 3 2 2 2 2 3 3 3 3 3 3 3 3 3 4 5 7 8 8 7 7 7 8 8 9 9 8 8 9 10 10 11 11 11 11 10 9 9 9 9 9 8 7 6 6 5 5 4 4 4 4 3 3 4 5 5 5 5
10 9 9 9 10 10 9 8 8 7 6 4 3 2 2 2 2 2 3 3 3 3 3 3 3 3 3 4 6 6 6 6 6 6 6 7 7 7 7 8 9 9 10 10 11 10 10 10 9 9 9 9 9 8 7 6 6 6 5 5 5 4 4 3 4 4 5 6 6
10 9 9 9 10 11 11 10 9 8 7 5 4 3 2 2 2 2 2 3 3 3 3 3 3 3 3 3 4 5 6 6 6 6 6 7 7 7 7 8 8 9 10 11 11 10 10 9 9 9 9 10 10 9 8 8 7 7 7 7 7 7 6 6 5 6 6 7 7
9 9 9 9 10 11 11 10 10 9 8 6 4 3 2 1 1 1 2 3 3 3 3 3 3 3 3 3 4 4 5 6 6 6 6 7 7 7 8 8 8 9 10 10 10 10 9 9 9 9 9 10 10 10 9 9 8 8 9 9 9 9 9 8 8 8 8 8 8
9 9 9 9 9 10 10 10 9 9 9 7 5 4 3 2 1 1 2 3 3 3 3 3 3 3 4 3 4 4 5 5 6 6 6 6 6 7 7 7 8 8 8 8 8 8 9 9 9 9 9 9 9 9 9 9 9 9 10 10 11 10 10 10 10 10 10 10 10
8 8 8 8 8 8 8 8 9 9 9 7 5 4 3 3 2 2 3 4 4 4 4 3 4 4 4 4 4 4 4 5 5 5 6 6 6 6 6 7 7 7 7 7 7 8 8 9 9 9 9 9 9 9 9 9 10 10 11 11 11 10 10 10 10 10 10 10 11
7 7 7 6 6 6 6 7 7 8 8 7 5 4 3 3 3 3 3 4 4 5 5 4 4 4 4 4 4 4 4 4 4 5 5 5 5 5 6 6 6 6 6 7 7 7 8 8 8 9 9 9 9 10 10 10 10 10 10 10 10 9 9 9 9 9 9 9 10
Wind_Direction
279 282 285 288 291 294 297 300 302 303 300 296 286 272 259 250 246 244 245 248 249 248 244 237 231 226 222 218 215 211 209 208 207 208 213 220 222 227 239 259 274 286 293 283 247 220 209 206 208 212 217 221 223 222 221 223 226 232 240 247 251 247 241 237 238 239 238 235 232
278 279 282 285 288 291 294 296 298 299 299 297 293 284 272 259 250 245 244 245 248 249 248 244 238 232 226 221 218 214 212 211 211 211 212 219 224 224 227 240 256 268 276 277 265 246 224 206 194 191 198 210 218 220 218 217 220 224 230 237 243 244 242 237 236 235 235 234 231
277 277 279 282 286 290 293 295 296 296 295 295 294 291 283 272 259 250 245 243 245 247 248 247 244 238 230 225 221 218 216 215 216 215 215 218 226 228 229 229 236 246 256 260 257 253 245 230 214 200 192 193 207 221 224 220 218 220 224 229 233 236 236 235 233 231 230 228 227
276 276 278 281 285 289 292 294 295 295 294 292 291 290 287 280 268 257 248 243 243 244 247 248 247 242 235 228 225 222 220 219 220 220 220 220 225 229 231 229 224 223 229 236 240 246 247 244 235 224 216 210 210 217 228 230 223 220 220 224 228 231 233 233 231 230 228 226 224
274 276 278 282 285 288 291 293 295 295 294 292 290 288 286 282 273 263 253 246 242 241 243 245 246 244 239 232 228 226 224 223 223 224 225 225 225 227 230 231 223 216 213 219 226 235 242 246 243 238 232 226 222 221 224 228 230 226 221 222 228 233 236 236 235 234 232 231 230
273 275 279 282 286 289 292 294 295 295 295 293 291 288 285 281 275 266 257 249 243 240 240 241 243 243 240 236 232 230 229 227 225 225 227 229 228 227 228 229 225 218 213 214 220 228 236 242 244 243 240 236 232 228 226 227 231 234 233 230 231 234 239 240 239 238 237 237 236
271 273 277 282 286 290 293 295 296 296 295 294 291 288 284 280 274 267 259 251 245 240 237 238 239 241 240 238 235 233 232 231 228 226 226 230 231 230 228 227 225 220 214 214 217 224 232 239 242 243 242 238 234 230 229 230 233 237 239 240 239 237 237 237 236 234 234 234 235
273 273 277 283 287 291 294 296 297 296 295 293 290 286 282 277 272 266 259 253 246 241 237 236 237 238 239 238 236 233 232 233 231 227 226 228 231 232 230 228 224 219 214 212 214 219 226 234 239 241 240 237 232 227 226 227 231 237 241 244 247 246 244 242 240 238 235 234 233
280 282 286 291 294 295 297 298 297 297 295 292 289 284 280 275 270 264 259 252 247 242 238 236 235 236 237 237 233 229 228 231 234 231 228 227 229 231 232 230 224 218 213 210 211 216 222 229 236 240 240 236 231 226 223 223 226 231 237 242 246 249 249 248 247 247 247 247 246
292 296 300 304 305 306 306 305 303 300 297 293 287 282 277 272 268 263 256 249 245 241 239 237 236 235 235 235 231 226 224 229 236 238 235 231 229 230 233 234 226 218 212 211 212 215 221 227 234 239 239 237 232 227 223 222 223 226 231 237 242 245 246 247 248 249 252 254 256
303 307 312 316 319 319 320 319 315 311 305 297 288 281 275 270 264 256 248 242 237 235 235 236 236 235 235 233 229 224 223 229 237 243 245 242 237 234 235 237 230 220 214 214 216 220 225 231 236 239 239 238 234 229 224 221 222 223 226 231 236 239 241 244 245 246 249 253 256
309 314 320 326 329 331 331 329 325 321 314 305 294 283 274 265 254 242 234 229 225 225 227 232 234 234 233 231 227 223 223 227 235 242 248 249 245 240 239 240 236 226 219 219 221 225 230 237 241 242 241 238 234 230 226 223 221 221 222 226 231 234 237 240 242 244 246 249 254
313 319 325 332 334 336 334 330 326 322 319 313 305 292 277 259 242 228 218 212 211 213 218 226 230 231 230 228 224 222 221 225 231 238 243 247 247 243 241 243 242 235 227 223 225 228 232 240 245 246 243 239 234 230 227 224 223 223 223 224 227 231 234 238 241 242 244 246 250
315 320 326 330 332 332 330 327 322 318 316 315 312 306 290 259 232 217 204 193 193 198 206 217 227 230 229 225 221 219 218 222 227 233 237 241 244 243 242 243 245 242 235 229 228 230 234 240 246 248 246 241 235 231 227 225 224 225 225 225 226 229 234 238 241 242 242 243 246
313 317 320 322 323 324 324 321 316 312 309 309 310 309 300 266 224 206 195 186 183 186 191 198 211 220 223 222 218 216 215 218 223 227 229 232 237 241 241 243 245 245 241 236 233 232 234 239 244 248 247 244 239 234 231 228 227 226 227 227 228 230 233 238 240 241 241 242 244
306 309 310 310 312 315 317 316 311 307 303 302 301 301 296 272 224 203 195 193 191 189 188 189 196 207 215 217 215 213 212 215 219 220 219 221 227 234 237 238 240 241 241 238 236 234 235 238 242 246 248 248 245 241 237 234 232 230 229 229 230 232 235 238 240 240 241 243 245
298 299 300 301 304 308 311 312 310 306 302 298 295 294 292 278 238 213 205 202 203 202 198 195 196 202 209 213 212 210 210 213 214 212 209 210 216 225 229 227 227 231 235 237 237 237 237 238 240 244 246 248 249 247 245 242 239 236 234 233 234 235 237 239 239 239 239 241 244
291 293 294 296 300 303 307 310 309 306 302 297 291 289 287 281 255 229 216 213 215 216 213 204 198 199 203 208 209 208 208 210 209 206 202 203 210 217 219 212 206 209 220 231 238 240 240 240 241 242 244 246 247 248 248 246 243 241 238 236 236 237 238 239 239 237 234 232 235
286 288 291 295 299 302 306 308 307 304 300 294 288 284 282 282 270 244 226 221 222 222 219 211 201 196 196 200 202 204 206 207 205 201 198 199 206 214 216 207 197 194 206 227 245 250 249 246 243 242 242 241 241 243 244 244 243 241 239 238 238 238 238 239 239 235 227 220 223
282 286 290 295 299 303 306 306 304 301 297 292 286 282 280 281 282 266 244 231 228 226 223 218 209 200 195 195 197 200 203 203 201 198 196 197 204 211 214 212 213 223 238 255 269 275 271 261 250 243 239 235 234 235 236 238 239 238 237 237 237 238 238 237 237 234 225 215 217
280 286 292 296 300 303 304 304 302 301 298 292 289 285 282 278 278 277 266 247 236 231 228 224 218 209 201 195 195 198 201 200 198 197 196 197 202 207 211 214 224 242 258 270 279 286 285 274 257 244 235 230 228 228 231 234 236 236 236 236 237 237 236 234 233 229 221 212 210
282 288 294 298 302 304 306 306 306 304 300 294 293 290 282 270 267 267 267 261 252 247 241 234 225 215 205 198 196 198 200 198 197 197 197 198 200 203 207 210 222 243 266 281 287 286 282 272 254 238 229 224 223 225 229 234 237 238 238 237 237 235 233 230 226 220 214 208 203
283 290 296 301 305 309 312 314 312 304 297 294 294 288 274 256 249 250 253 255 255 257 257 250 233 218 206 198 196 199 201 199 197 196 197 199 199 198 201 202 207 220 251 283 283 271 261 248 232 220 214 214 218 224 230 235 239 241 241 240 238 236 233 228 221 213 208 204 201
283 291 297 303 309 315 320 321 311 298 288 286 291 288 277 262 248 241 245 250 250 249 249 248 229 213 204 199 198 200 202 199 194 193 196 202 201 198 194 193 190 189 193 225 240 229 211 193 185 184 187 196 208 219 229 237 242 245 244 243 241 238 235 231 224 215 208 204 203
282 289 296 304 312 319 322 319 305 292 281 272 277 285 285 277 253 235 235 246 249 245 236 225 210 202 199 198 198 202 203 197 191 188 193 202 207 204 196 190 187 184 185 199 215 205 186 169 162 158 158 164 182 205 223 236 244 247 247 245 243 241 239 236 232 225 216 208 206
279 285 293 304 313 318 317 308 300 293 284 271 265 272 283 287 260 220 226 247 251 244 232 216 202 194 192 195 199 202 202 194 187 185 187 196 205 208 203 195 190 187 187 195 209 206 192 177 170 163 155 148 151 166 196 226 242 248 248 245 243 241 239 238 236 233 226 218 214
274 278 286 300 310 311 300 289 293 299 301 294 283 277 274 253 202 222 239 251 255 245 229 213 201 192 190 194 198 200 196 189 185 183 184 187 195 201 203 200 197 195 194 199 208 211 206 195 188 182 174 166 162 163 173 198 234 247 245 240 237 236 236 236 235 235 232 228 224
267 268 272 285 302 303 280 259 283 313 329 338 335 319 292 175 167 220 249 245 243 229 218 207 199 194 192 194 193 191 188 185 185 185 185 183 186 191 196 198 200 201 202 205 211 216 216 211 206 203 199 195 193 194 200 209 225 242 237 224 219 222 226 230 233 234 234 232 231
259 255 252 254 271 284 234 188 187 354 358 14 21 14 5 134 172 227 261 251 238 218 204 195 193 196 199 198 188 183 182 183 186 187 186 185 185 188 192 196 200 204 206 210 215 220 223 222 221 220 220 219 217 216 218 223 230 237 237 211 189 188 199 215 225 231 233 234 233
254 246 238 231 229 200 146 129 96 24 22 34 44 43 38 36 184 243 262 254 241 218 192 182 184 193 201 200 188 181 181 185 188 189 189 189 191 193 196 199 203 205 208 211 216 220 225 227 230 234 236 235 233 232 232 233 236 241 243 234 206 177 169 176 195 212 223 228 228
250 241 231 222 216 202 174 154 174 358 17 32 40 45 48 46 27 296 267 244 200 169 161 169 178 188 195 198 194 189 187 187 187 188 190 193 199 203 205 204 205 207 209 211 213 216 221 226 233 240 245 245 243 241 240 241 242 244 245 241 228 201 173 160 159 165 180 194 201
250 240 229 219 214 206 193 190 236 291 346 17 28 33 38 42 45 8 307 262 167 150 150 161 173 181 187 193 196 199 198 192 187 187 192 200 208 213 213 209 208 210 212 213 211 212 215 222 231 239 245 246 245 243 243 243 245 245 244 241 234 221 200 176 161 155 156 161 168
252 242 229 220 215 208 199 202 238 269 300 345 8 17 24 32 47 56 37 326 151 147 149 156 164 171 177 183 191 198 201 196 189 190 196 205 212 216 216 212 210 213 215 215 213 212 214 221 229 236 240 241 240 239 240 243 245 246 244 239 234 227 217 203 188 178 172 169 170
254 245 231 222 219 213 204 203 231 254 272 301 339 357 6 17 36 56 70 82 108 130 143 152 158 162 166 172 181 189 194 192 186 185 190 199 206 209 210 210 211 214 217 218 216 216 219 225 232 236 238 237 234 233 236 242 247 248 245 242 239 234 228 219 212 206 201 196 193
253 246 234 223 221 219 212 207 221 239 254 270 300 326 344 4 27 48 64 81 96 111 127 145 156 161 165 168 173 179 183 184 182 181 183 188 194 199 204 207 209 212 215 217 218 221 225 230 234 237 238 236 233 232 234 242 249 253 255 256 256 255 250 239 232 228 227 227 227
245 241 234 225 223 222 220 215 218 227 240 252 274 300 322 347 21 46 65 82 91 98 105 121 138 151 161 166 170 174 178 181 182 183 185 188 192 196 201 205 207 208 210 214 218 223 228 232 234 235 235 234 233 233 235 241 249 256 262 267 272 275 275 271 259 252 250 251 252
235 234 230 226 224 225 225 223 222 225 231 239 255 283 307 333 9 50 77 90 92 92 98 109 120 133 147 159 168 173 177 181 185 189 192 194 196 198 202 205 206 207 209 213 218 224 229 234 235 233 230 228 229 230 234 239 246 254 262 268 272 274 276 276 272 269 265 264 263
229 228 225 222 223 225 228 229 229 230 232 235 244 262 282 297 339 75 101 105 101 96 99 110 118 129 140 152 163 169 174 178 184 190 195 196 198 199 202 205 208 209 211 213 218 225 232 237 238 235 230 225 225 227 231 236 243 251 258 263 267 269 271 273 273 271 268 266 265
226 224 222 220 220 224 228 231 233 235 235 235 240 247 256 252 223 164 139 127 119 114 113 120 130 137 141 148 160 168 172 176 181 187 191 196 198 200 202 205 208 210 211 213 218 225 231 236 238 236 232 227 225 226 230 235 241 248 254 258 261 264 266 268 270 270 268 267 266
222 222 220 219 220 224 227 229 232 234 236 236 238 243 248 239 220 195 171 147 133 128 128 132 138 142 145 152 163 171 175 178 179 181 185 190 194 198 200 202 205 206 207 209 213 219 224 228 231 231 229 226 224 225 228 233 237 242 248 253 257 260 262 262 264 266 268 269 269
216 217 218 219 223 228 230 230 230 230 230 230 232 235 237 233 231 218 193 163 142 133 131 135 139 142 145 149 158 167 174 177 176 175 177 181 187 191 193 195 197 197 197 199 203 208 213 217 220 220 220 219 219 220 223 227 230 235 240 247 252 256 258 259 259 261 265 269 271
Height
1435 1435 1435 1434 1434 1434 1434 1433 1433 1433 1433 1432 1432 1432 1432 1432 1432 1432 1433 1433 1433 1433 1434 1434 1434 1434 1434 1434 1434 1434 1434 1434 1434 1434 1433 1433 1433 1433 1433 1434 1434 1434 1434 1434 1434 1434 1434 1435 1435 1435 1436 1437 1438 1439 1440 1441 1442 1444 1445 1446 1446 1446 1447 1447 1448 1449 1449 1449 1449
1434 1434 1434 1433 1433 1433 1432 1432 1432 1432 1432 1432 1432 1431 1431 1431 1431 1431 1431 1432 1432 1432 1433 1433 1433 1433 1433 1433 1434 1433 1433 1433 1433 1433 1433 1432 1432 1432 1433 1433 1434 1434 1434 1434 1434 1434 1435 1435 1435 1435 1436 1436 1437 1437 1438 1439 1441 1443 1444 1445 1445 1445 1446 1446 1447 1447 1448 1448 1448
1434 1433 1433 1432 1432 1432 1431 1431 1431 1431 1431 1431 1431 1431 1430 1430 1430 1430 1430 1430 1431 1431 1431 1432 1432 1432 1433 1433 1433 1433 1433 1432 1432 1432 1432 1432 1432 1432 1432 1433 1433 1434 1434 1434 1434 1434 1435 1435 1435 1435 1435 1436 1436 1436 1437 1437 1439 1440 1441 1442 1443 1444 1444 1444 1445 1445 1446 1447 1447
1433 1432 1432 1432 1431 1431 1430 1430 1430 1429 1429 1429 1429 1429 1429 1429 1429 1429 1429 1429 1429 1429 1430 1430 1431 1431 1432 1432 1432 1432 1432 1432 1432 1431 1431 1431 1431 1432 1432 1432 1433 1433 1433 1434 1434 1434 1435 1435 1435 1435 1435 1435 1436 1436 1437 1437 1437 1438 1439 1439 1440 1441 1442 1443 1443 1444 1444 1445 1446
1432 1431 1431 1431 1430 1430 1429 1429 1429 1428 1428 1428 1428 1428 1428 1428 1428 1428 1428 1428 1428 1428 1428 1429 1429 1430 1430 1431 1431 1431 1431 1431 1431 1431 1430 1430 1431 1431 1432 1432 1432 1432 1433 1433 1434 1434 1434 1434 1434 1435 1435 1435 1436 1436 1437 1437 1437 1437 1438 1438 1439 1439 1440 1441 1441 1442 1442 1443 1444
1431 1431 1430 1430 1429 1429 1429 1428 1428 1427 1427 1426 1426 1426 1426 1426 1426 1426 1426 1426 1426 1427 1427 1427 1428 1428 1429 1430 1430 1430 1430 1430 1430 1430 1430 1430 1430 1430 1431 1432 1432 1432 1432 1433 1433 1434 1434 1434 1434 1434 1434 1435 1435 1436 1436 1437 1437 1437 1438 1438 1438 1439 1439 1439 1440 1440 1441 1441 1442
1431 1430 1430 1429 1429 1429 1428 1427 1427 1426 1425 1425 1424 1424 1424 1424 1424 1424 1424 1424 1424 1425 1425 1426 1426 1427 1428 1429 1429 1429 1430 1430 1430 1430 1430 1430 1430 1430 1430 1431 1431 1432 1432 1432 1433 1433 1433 1434 1434 1434 1434 1435 1435 1436 1436 1436 1437 1437 1437 1438 1438 1438 1439 1439 1439 1439 1440 1440 1441
1430 1430 1429 1429 1429 1428 1427 1426 1425 1425 1424 1424 1423 1423 1422 1422 1422 1422 1423 1423 1423 1423 1424 1424 1424 1425 1426 1427 1428 1429 1429 1429 1429 1429 1429 1430 1430 1430 1430 1430 1431 1431 1431 1432 1432 1432 1433 1433 1433 1434 1434 1434 1435 1435 1436 1436 1436 1436 1437 1437 1437 1438 1438 1438 1439 1439 1439 1440 1440
1429 1429 1428 1428 1427 1427 1426 1425 1424 1424 1423 1422 1421 1421 1420 1420 1420 1420 1421 1421 1421 1422 1422 1423 1423 1424 1425 1426 1427 1428 1428 1428 1428 1429 1429 1429 1429 1429 1429 1430 1430 1430 1431 1431 1432 1432 1432 1433 1433 1433 1434 1434 1434 1434 1435 1435 1436 1436 1436 1436 1437 1437 1437 1437 1438 1438 1439 1439 1439
1428 1428 1427 1427 1426 1425 1425 1424 1423 1422 1421 1420 1420 1419 1419 1419 1419 1419 1419 1419 1419 1420 1421 1421 1422 1423 1424 1424 1426 1426 1427 1427 1427 1427 1428 1428 1428 1429 1429 1429 1429 1429 1430 1430 1431 1431 1432 1432 1433 1433 1433 1433 1434 1434 1434 1435 1435 1435 1436 1436 1436 1436 1436 1437 1437 1437 1438 1438 1439
1427 1426 1426 1425 1424 1424 1423 1422 1422 1421 1420 1419 1418 1417 1417 1417 1417 1417 1417 1418 1418 1419 1419 1420 1420 1421 1422 1423 1424 1425 1425 1426 1426 1426 1427 1427 1427 1428 1428 1428 1429 1429 1429 1430 1430 1430 1431 1432 1432 1432 1433 1433 1433 1433 1434 1434 1434 1435 1435 1436 1435 1435 1436 1436 1436 1436 1437 1437 1438
1425 1424 1424 1423 1423 1422 1421 1421 1420 1419 1419 1418 1417 1416 1415 1415 1415 1415 1416 1416 1417 1417 1418 1419 1419 1420 1420 1422 1423 1424 1424 1425 1425 1425 1426 1426 1427 1427 1427 1428 1428 1428 1429 1429 1429 1430 1430 1431 1431 1432 1432 1432 1432 1433 1433 1434 1434 1434 1435 1435 1435 1435 1435 1435 1435 1436 1436 1436 1437
1424 1423 1423 1422 1421 1421 1420 1420 1419 1418 1418 1417 1416 1415 1414 1414 1414 1414 1414 1415 1415 1416 1417 1418 1418 1419 1419 1420 1421 1422 1423 1424 1424 1425 1425 1425 1426 1426 1426 1427 1427 1427 1428 1428 1429 1429 1429 1430 1431 1431 1431 1432 1432 1432 1433 1433 1434 1434 1434 1434 1434 1434 1434 1434 1435 1435 1435 1436 1436
1423 1422 1422 1421 1421 1420 1420 1419 1419 1418 1417 1416 1415 1414 1413 1413 1413 1413 1413 1414 1414 1415 1415 1416 1417 1418 1418 1419 1420 1421 1422 1423 1423 1424 1424 1425 1425 1425 1425 1426 1426 1427 1427 1427 1428 1428 1429 1429 1430 1430 1431 1431 1431 1432 1432 1433 1433 1433 1433 1433 1433 1434 1434 1434 1435 1435 1435 1436 1436
1422 1422 1421 1421 1420 1420 1419 1419 1418 1417 1417 1416 1415 1414 1413 1412 1412 1412 1412 1413 1413 1414 1414 1415 1415 1416 1417 1418 1418 1419 1420 1421 1422 1423 1424 1424 1424 1424 1425 1425 1425 1426 1426 1426 1427 1428 1428 1429 1429 1429 1430 1430 1431 1431 1431 1432 1432 1432 1433 1433 1433 1433 1434 1434 1435 1435 1435 1435 1435
1422 1421 1421 1421 1420 1419 1419 1418 1418 1417 1416 1415 1414 1414 1413 1412 1412 1412 1412 1412 1412 1412 1413 1413 1414 1414 1415 1416 1417 1418 1419 1420 1421 1422 1423 1424 1424 1424 1424 1424 1425 1425 1425 1425 1426 1427 1427 1428 1428 1429 1429 1429 1430 1430 1431 1431 1431 1431 1432 1432 1432 1433 1434 1434 1435 1435 1435 1435 1435
1422 1421 1421 1420 1420 1419 1419 1418 1417 1416 1415 1415 1414 1413 1412 1412 1411 1411 1411 1411 1411 1411 1411 1412 1412 1413 1414 1414 1415 1417 1418 1419 1420 1421 1422 1423 1423 1423 1424 1424 1424 1424 1424 1425 1425 1426 1426 1427 1428 1428 1428 1429 1429 1429 1430 1430 1430 1431 1431 1431 1432 1433 1433 1434 1434 1434 1434 1434 1434
1421 1421 1420 1420 1419 1419 1418 1417 1416 1415 1414 1414 1413 1412 1412 1411 1411 1410 1410 1410 1410 1410 1410 1410 1411 1412 1413 1414 1415 1416 1417 1419 1419 1420 1421 1422 1422 1423 1423 1423 1424 1424 1424 1424 1424 1425 1425 1426 1426 1427 1427 1428 1428 1429 1429 1429 1430 1430 1430 1431 1431 1432 1433 1433 1434 1434 1434 1434 1434
1420 1420 1420 1419 1419 1418 1417 1416 1415 1414 1414 1413 1412 1412 1411 1410 1410 1409 1409 1409 1409 1409 1409 1409 1409 1410 1411 1413 1414 1415 1417 1418 1419 1419 1420 1421 1421 1422 1423 1423 1423 1423 1423 1424 1424 1424 1425 1425 1425 1426 1426 1427 1428 1428 1428 1429 1429 1429 1430 1430 1431 1431 1432 1432 1433 1433 1433 1433 1433
1420 1419 1419 1419 1418 1417 1416 1415 1414 1414 1413 1412 1412 1411 1410 1410 1409 1409 1409 1409 1409 1408 1408 1408 1409 1409 1410 1412 1413 1414 1416 1417 1418 1419 1419 1420 1421 1421 1422 1422 1422 1423 1423 1423 1424 1424 1424 1424 1424 1425 1425 1426 1426 1427 1428 1428 1428 1429 1429 1429 1430 1431 1431 1432 1432 1432 1432 1433 1433
1419 1419 1418 1418 1417 1416 1415 1414 1414 1413 1413 1412 1411 1410 1410 1409 1409 1409 1409 1408 1408 1408 1408 1408 1409 1409 1410 1411 1412 1414 1415 1416 1417 1418 1419 1419 1420 1421 1421 1422 1422 1422 1423 1423 1423 1424 1424 1424 1424 1424 1424 1425 1425 1426 1427 1427 1428 1428 1429 1429 1429 1430 1430 1431 1431 1431 1432 1432 1433
1418 1418 1418 1417 1416 1415 1414 1414 1413 1413 1412 1411 1411 1410 1409 1409 1409 1408 1408 1408 1408 1408 1408 1408 1408 1409 1409 1411 1412 1413 1414 1415 1416 1417 1418 1419 1419 1420 1421 1421 1421 1422 1422 1423 1423 1423 1423 1423 1423 1423 1424 1424 1424 1425 1426 1426 1427 1428 1428 1429 1429 1429 1430 1430 1430 1431 1431 1432 1432
1418 1417 1417 1416 1415 1415 1414 1413 1413 1412 1412 1411 1410 1409 1409 1409 1408 1408 1408 1408 1408 1408 1407 1407 1407 1408 1409 1410 1411 1413 1414 1414 1415 1416 1417 1418 1419 1419 1420 1421 1421 1421 1422 1422 1423 1423 1423 1423 1423 1423 1423 1423 1424 1424 1425 1426 1426 1427 1427 1428 1428 1429 1429 1429 1430 1430 1431 1431 1432
1417 1416 1416 1415 1415 1414 1413 1413 1412 1412 1411 1411 1410 1409 1408 1408 1408 1407 1407 1407 1407 1407 1407 1407 1407 1408 1409 1409 1411 1412 1413 1414 1415 1416 1417 1417 1418 1419 1420 1420 1421 1421 1421 1422 1422 1422 1422 1422 1422 1423 1423 1423 1424 1424 1425 1425 1426 1426 1427 1427 1428 1428 1429 1429 1429 1430 1430 1431 1431
1416 1416 1415 1415 1414 1414 1413 1412 1412 1411 1411 1410 1409 1409 1408 1407 1407 1407 1407 1407 1407 1407 1407 1407 1407 1408 1408 1409 1410 1411 1412 1413 1414 1415 1416 1417 1417 1418 1419 1420 1420 1421 1421 1421 1422 1422 1422 1422 1422 1423 1423 1423 1423 1424 1424 1425 1425 1426 1426 1427 1428 1428 1429 1429 1429 1429 1430 1430 1431
1415 1415 1414 1414 1414 1413 1413 1412 1412 1411 1410 1409 1409 1408 1407 1407 1407 1407 1407 1407 1407 1406 1406 1406 1407 1407 1408 1409 1410 1411 1412 1413 1414 1414 1415 1416 1417 1418 1419 1419 1420 1420 1421 1421 1421 1422 1422 1422 1422 1422 1423 1423 1423 1424 1424 1424 1425 1425 1426 1426 1427 1428 1428 1428 1429 1429 1430 1430 1430
1414 1414 1414 1414 1413 1413 1412 1412 1412 1411 1410 1409 1408 1408 1407 1407 1407 1407 1407 1407 1406 1406 1406 1406 1407 1407 1408 1409 1409 1410 1411 1412 1413 1414 1415 1416 1417 1417 1418 1419 1419 1420 1420 1420 1421 1421 1421 1421 1422 1422 1422 1422 1423 1423 1424 1424 1425 1425 1426 1426 1426 1427 1427 1428 1428 1429 1429 1430 1430
1413 1414 1413 1413 1413 1413 1412 1412 1411 1411 1410 1409 1408 1407 1407 1407 1407 1407 1407 1406 1406 1406 1406 1406 1407 1407 1408 1408 1409 1409 1410 1411 1412 1413 1414 1415 1416 1417 1417 1418 1419 1419 1420 1420 1420 1421 1421 1421 1421 1421 1422 1422 1422 1423 1424 1424 1425 1425 1426 1426 1426 1426 1427 1427 1428 1428 1429 1429 1429
1413 1413 1413 1413 1413 1412 1412 1411 1411 1411 1410 1409 1408 1408 1407 1407 1407 1407 1407 1406 1406 1406 1406 1406 1407 1407 1408 1408 1409 1409 1410 1411 1412 1413 1413 1414 1415 1416 1417 1417 1418 1419 1419 1419 1420 1420 1420 1421 1421 1421 1421 1422 1422 1423 1423 1424 1424 1425 1426 1426 1426 1426 1426 1427 1427 1428 1428 1429 1429
1412 1412 1412 1412 1412 1412 1411 1411 1411 1410 1409 1409 1408 1408 1407 1407 1407 1407 1407 1406 1406 1406 1406 1406 1407 1407 1408 1408 1408 1409 1409 1410 1411 1412 1413 1414 1414 1415 1416 1416 1417 1418 1419 1419 1419 1420 1420 1420 1420 1421 1421 1421 1422 1422 1423 1423 1424 1425 1425 1426 1426 1426 1426 1426 1427 1427 1428 1428 1429
1411 1411 1411 1411 1412 1411 1411 1411 1410 1410 1409 1409 1408 1408 1408 1407 1407 1407 1406 1406 1406 1406 1406 1406 1407 1407 1408 1408 1408 1409 1409 1410 1411 1412 1412 1413 1414 1415 1415 1416 1416 1417 1418 1419 1419 1419 1420 1420 1420 1420 1421 1421 1421 1422 1422 1423 1424 1424 1425 1425 1426 1426 1426 1426 1426 1427 1427 1428 1428
1410 1410 1410 1411 1411 1411 1410 1410 1410 1410 1409 1409 1408 1408 1408 1407 1407 1407 1407 1406 1406 1406 1406 1406 1407 1407 1408 1408 1409 1409 1409 1410 1411 1411 1412 1413 1414 1414 1415 1415 1416 1416 1417 1418 1418 1419 1419 1419 1420 1420 1420 1421 1421 1421 1422 1422 1423 1424 1424 1425 1425 1426 1426 1426 1426 1427 1427 1427 1428
1409 1409 1409 1410 1410 1410 1410 1410 1410 1409 1409 1409 1408 1408 1408 1407 1407 1407 1407 1407 1406 1406 1406 1406 1407 1407 1407 1408 1409 1409 1410 1410 1410 1411 1412 1413 1414 1414 1415 1415 1415 1416 1416 1417 1417 1418 1419 1419 1419 1420 1420 1420 1420 1421 1421 1422 1423 1423 1424 1424 1424 1425 1425 1426 1426 1426 1427 1427 1428
1408 1408 1409 1409 1409 1409 1409 1409 1409 1409 1409 1409 1408 1408 1408 1408 1407 1407 1407 1407 1407 1406 1406 1406 1407 1407 1407 1408 1409 1409 1409 1410 1410 1411 1412 1413 1414 1414 1414 1415 1415 1415 1416 1416 1417 1417 1418 1419 1419 1419 1420 1420 1420 1420 1421 1421 1422 1422 1423 1423 1424 1424 1425 1425 1425 1426 1426 1427 1428
1407 1407 1408 1408 1409 1409 1409 1409 1409 1409 1409 1408 1408 1408 1408 1408 1407 1407 1407 1407 1407 1407 1407 1407 1407 1407 1407 1408 1408 1409 1409 1410 1410 1411 1412 1412 1413 1414 1414 1414 1414 1415 1415 1416 1416 1417 1418 1418 1419 1419 1419 1419 1419 1420 1420 1421 1421 1421 1422 1423 1423 1424 1424 1424 1425 1425 1426 1426 1427
1406 1406 1407 1407 1408 1408 1408 1408 1408 1408 1408 1408 1408 1408 1408 1408 1407 1407 1407 1407 1407 1407 1407 1407 1407 1407 1408 1408 1408 1409 1409 1410 1410 1411 1411 1412 1413 1413 1414 1414 1414 1415 1415 1416 1416 1417 1417 1418 1418 1418 1419 1419 1419 1419 1420 1420 1420 1421 1421 1422 1422 1423 1423 1424 1424 1424 1425 1426 1426
1405 1405 1406 1406 1407 1407 1408 1408 1408 1408 1408 1408 1408 1408 1408 1408 1408 1407 1407 1407 1407 1407 1407 1407 1407 1408 1408 1408 1409 1409 1409 1410 1410 1411 1411 1412 1412 1413 1413 1414 1414 1414 1415 1415 1416 1416 1417 1417 1417 1418 1418 1418 1419 1419 1419 1420 1420 1420 1421 1421 1422 1422 1422 1423 1423 1424 1424 1425 1426
1404 1405 1405 1406 1406 1407 1407 1407 1407 1407 1407 1408 1408 1408 1408 1408 1407 1407 1407 1407 1407 1407 1407 1407 1408 1408 1408 1408 1409 1409 1409 1410 1410 1411 1411 1412 1412 1413 1413 1414 1414 1414 1415 1415 1415 1416 1416 1416 1417 1417 1417 1418 1418 1418 1419 1419 1419 1420 1420 1420 1421 1421 1422 1422 1423 1423 1424 1424 1425
1404 1404 1404 1405 1405 1406 1406 1406 1407 1407 1407 1407 1407 1408 1408 1407 1407 1407 1407 1407 1407 1407 1407 1408 1408 1408 1408 1408 1409 1409 1409 1409 1410 1410 1411 1411 1412 1412 1413 1413 1413 1414 1414 1414 1415 1415 1416 1416 1416 1416 1417 1417 1417 1418 1418 1418 1419 1419 1419 1420 1420 1421 1421 1422 1422 1423 1423 1424 1424
1404 1404 1404 1404 1405 1405 1406 1406 1406 1406 1407 1407 1407 1407 1407 1407 1407 1407 1407 1407 1407 1407 1408 1408 1408 1408 1408 1408 1409 1409 1409 1409 1410 1410 1410 1411 1411 1412 1412 1413 1413 1413 1414 1414 1415 1415 1415 1416 1416 1416 1416 1416 1417 1417 1417 1418 1418 1419 1419 1419 1420 1420 1421 1421 1422 1422 1423 1423 1423
1404 1404 1404 1404 1404 1405 1405 1405 1405 1406 1406 1406 1407 1407 1407 1407 1407 1407 1407 1407 1407 1407 1408 1408 1408 1408 1408 1408 1409 1409 1409 1409 1409 1410 1410 1410 1411 1411 1412 1412 1412 1413 1413 1414 1414 1414 1415 1415 1415 1416 1416 1416 1416 1417 1417 1417 1418 1418 1419 1419 1419 1419 1420 1420 1421 1422 1422 1422 1423